Showing default

KUIPER-00118, 65154

Orbit data source: Space-Track

KUIPER-00118, 65154 is a payload satellite owned by Kuiper Systems (US) in LEO that was launched on Mon, 11 Aug 2025 UTC via an FALCON 9 launch vehicle from the Air Force Eastern Test Range (AFETR). Payload-class satellites include a variety of spacecraft equipped with specific instruments for various scientific and technological missions. These include communications satellites like Starlink; space stations such as the ISS; scientific satellites like the Hubble; Earth observation satellites from companies like Planet Labs, Umbra, and HawkEye 360; GPS; miniature CubeSats for education and research; and military/defense satellites.

Loading next visibility...
Identifier
65154, 2025-171Y
Orbit
LEO
Country
Flag of USUS
Related business
Manufacturer
Kuiper Systems
Mission
Operational Commercial Communications
Bus & Motor
KUIPER, Unknown motor
Mass
~490 kg wet, ~490 kg dry
Launch date (UTC)
2025-08-11 (10 months ago)
Launch vehicle
FALCON 9
Launch site
Air Force Eastern Test Range (AFETR)
Object type
Payload
Rocket body
Debris
Shape & HBR
Box + 2 Pan, 3.4 m
Radar Cross Section
2.326 m², Large (>1 m²)

Expand to show TLE details & history
Last TLE update: 18 hours ago

TLE from 18 hours ago
0 KUIPER-00118
1 65154U 25171Y   26171.13506717  .00003040  00000-0  42752-3 0  9994
2 65154  51.9002  82.5696 0000705  96.9658 263.1385 14.79937078 47814
Epoch: 2026-06-20T03:14Z
TLE epoch observation values (Epoch: 2026-06-20T03:14:29.803Z)
Latitude
0.00002°
Longitude
125.59139°
Altitude
630.329 km
Speed
7.544 km/s
True Right ascension
05h 30m 16s
True Declination
0° 00' 00"
Sunlit
Object was in daylight at epoch
Visualization orbit readout
Latitude
Unknown
Longitude
Unknown
Altitude
Unknown
Speed
Unknown
Apparent Right ascension
Unknown
Apparent Declination
Unknown
Sunlit
N/A
Visualization observer readout
Local Sidereal Time
08:32:56
Azimuth
Unknown
Elevation
Unknown
Doppler factor
Unknown
Orbital elements
Apogee altitude
630.468 km
Perigee altitude
629.48 km
Semi-major axis
7,008.111 km
Eccentricity
0.00007
Inclination
51.9002°
RAAN
82.5696°
Arg. of periapsis
96.9658°
True anomaly
263.13048°
Mean anomaly
263.1385°
Eccentric anomaly
263.13449°
Mean motion
3.69949 °/min
Orbital period
97.31 mins
BSTAR
0.00042752
Loading maneuver chart data...
Computing Atmospheric mass density...
Loading historical data...
Loading historical data...
Loading historical data...
Loading historical data...
Loading historical data...
Loading historical data...
Loading historical data...

Documentation

Showing up to 5 results
|